Retour au catalogue

DELTA 1 DEB

ActifUNKNOWN
NORAD 9979·DEBRIS·🇺🇸 United States

Lancé Nov 6, 1973 depuis Vandenberg Space Force Base

Loading…

Prochains Passages (prochaines 24 heures)

TLE

FraisSource: Space-Track

Époque: Sep 13, 2026, 13:35 UTC

1  9979U 73086GJ  26256.56634586 -.00000369  00000-0 -49536-2 0  9991
2  9979 101.9310 161.3833 0584551 195.9465 292.5005 11.50897801530082

Suivez DELTA 1 DEB en temps réel avec AllMySat

Download on the App Store